IBE9806 LEMD-LEMI

Flight info

Callsign IBE9806
Flight time N/A
Altitude 29000
Route NANDO L150 ALT
Aircraft A319/M-SDE3FGHIRWY/LB1

Departure

Time N/A
Airport Adolfo Suárez Madrid–Barajas Airport (LEMD)

Arrival

Time 2026-05-05 14:59
Airport Region of Murcia International Airport (LEMI)
Time Latitude Longitude Altitude Speed Heading
2026-05-05 14:53 38.05456 -0.80292 7518 ft 276 kts 225°
2026-05-05 14:53 38.04101 -0.82019 7126 ft 274 kts 225°
2026-05-05 14:53 38.02754 -0.83726 6624 ft 276 kts 225°
2026-05-05 14:54 38.01349 -0.85412 6153 ft 276 kts 222°
2026-05-05 14:54 37.99965 -0.87066 5802 ft 271 kts 225°
2026-05-05 14:54 37.98671 -0.88735 5453 ft 258 kts 226°
2026-05-05 14:54 37.97457 -0.90322 5127 ft 251 kts 226°
2026-05-05 14:55 37.97048 -0.90854 5014 ft 250 kts 226°
2026-05-05 14:55 37.93808 -0.95052 4132 ft 240 kts 225°
2026-05-05 14:55 37.92710 -0.96472 3823 ft 237 kts 225°
2026-05-05 14:56 37.91564 -0.97953 3514 ft 235 kts 225°
2026-05-05 14:56 37.90423 -0.99427 3198 ft 234 kts 226°
2026-05-05 14:56 37.89310 -1.00867 2896 ft 221 kts 225°
2026-05-05 14:56 37.88267 -1.02214 2619 ft 207 kts 225°
2026-05-05 14:57 37.87285 -1.03483 2362 ft 196 kts 225°
2026-05-05 14:57 37.86367 -1.04666 2105 ft 181 kts 225°
2026-05-05 14:57 37.85534 -1.05740 1884 ft 160 kts 225°
2026-05-05 14:57 37.84800 -1.06689 1667 ft 143 kts 225°
2026-05-05 14:58 37.84129 -1.07554 1470 ft 134 kts 225°
2026-05-05 14:58 37.83484 -1.08387 1300 ft 131 kts 225°
2026-05-05 14:58 37.82849 -1.09205 1137 ft 130 kts 225°
2026-05-05 14:58 37.82218 -1.10016 977 ft 129 kts 225°
2026-05-05 14:59 37.81591 -1.10828 784 ft 128 kts 226°
2026-05-05 14:59 37.80970 -1.11632 657 ft 126 kts 225°
2026-05-05 14:59 37.80483 -1.12252 648 ft 59 kts 224°
2026-05-05 14:59 37.80305 -1.12481 647 ft 42 kts 226°
2026-05-05 15:00 37.80123 -1.12714 644 ft 25 kts 224°
2026-05-05 15:00 37.80040 -1.12821 643 ft 19 kts 226°
2026-05-05 15:00 37.79924 -1.13043 647 ft 18 kts 251°
2026-05-05 15:00 37.79888 -1.13191 653 ft 15 kts 255°
2026-05-05 15:01 37.79961 -1.13227 650 ft 15 kts 39°
2026-05-05 15:01 37.80019 -1.13161 648 ft 15 kts 44°
2026-05-05 15:01 37.80071 -1.13093 648 ft 8 kts 46°
2026-05-05 15:01 37.80116 -1.13081 647 ft 0 kts 327°
2026-05-05 15:02 37.80135 -1.13097 647 ft 6 kts 325°
2026-05-05 15:02 37.80177 -1.13149 648 ft 11 kts 327°
2026-05-05 15:02 37.80230 -1.13125 647 ft 9 kts 39°
2026-05-05 15:03 37.80276 -1.13080 647 ft 8 kts 38°
2026-05-05 15:03 37.80306 -1.13079 647 ft 0 kts 325°
2026-05-05 15:03 37.80326 -1.13092 647 ft 4 kts 330°
2026-05-05 15:03 37.80347 -1.13115 647 ft 3 kts 317°
2026-05-05 15:04 37.80353 -1.13122 647 ft 0 kts 316°
2026-05-05 15:04 37.80353 -1.13123 647 ft 0 kts 316°